TimeEDT,TemperatureF,Dew PointF,Humidity,Sea Level PressureIn,VisibilityMPH,Wind Direction,Wind SpeedMPH,Gust SpeedMPH,PrecipitationIn,Events,Conditions,WindDirDegrees,DateUTC
12:15 AM,67.5,67.1,99,29.92,10.0,Calm,Calm,-,N/A,,Mostly Cloudy,0,2013-07-12 04:15:00
12:35 AM,67.1,66.7,99,29.93,10.0,NW,3.5,-,N/A,,Scattered Clouds,310,2013-07-12 04:35:00
12:55 AM,67.1,66.7,99,29.93,10.0,Calm,Calm,-,N/A,,Scattered Clouds,0,2013-07-12 04:55:00
1:15 AM,67.3,66.7,98,29.92,10.0,Calm,Calm,-,N/A,,Scattered Clouds,0,2013-07-12 05:15:00
1:35 AM,67.3,67.1,99,29.92,7.0,Calm,Calm,-,N/A,,Mostly Cloudy,0,2013-07-12 05:35:00
1:55 AM,67.1,66.9,99,29.91,7.0,Calm,Calm,-,N/A,,Overcast,0,2013-07-12 05:55:00
2:15 AM,67.5,67.3,99,29.92,7.0,Calm,Calm,-,N/A,,Overcast,0,2013-07-12 06:15:00
2:35 AM,67.1,67.1,100,29.92,7.0,Calm,Calm,-,N/A,,Overcast,0,2013-07-12 06:35:00
2:55 AM,67.6,67.3,99,29.92,7.0,Calm,Calm,-,N/A,,Overcast,0,2013-07-12 06:55:00
3:15 AM,67.6,67.3,99,29.92,10.0,Calm,Calm,-,N/A,,Overcast,0,2013-07-12 07:15:00
3:35 AM,68.0,67.5,98,29.92,10.0,SSW,3.5,-,N/A,,Overcast,200,2013-07-12 07:35:00
3:55 AM,68.2,68.0,99,29.92,3.0,Calm,Calm,-,N/A,Rain,Light Rain,0,2013-07-12 07:55:00
4:15 AM,68.5,68.4,99,29.91,2.0,Calm,Calm,-,0.01,,Drizzle,0,2013-07-12 08:15:00
4:35 AM,68.9,68.5,99,29.90,5.0,Calm,Calm,-,0.01,Rain,Rain,0,2013-07-12 08:35:00
4:55 AM,69.1,68.9,99,29.91,5.0,West,3.5,-,0.01,,Overcast,270,2013-07-12 08:55:00
5:15 AM,69.1,68.9,99,29.91,5.0,West,3.5,-,N/A,,Overcast,270,2013-07-12 09:15:00
5:35 AM,69.4,68.9,98,29.92,7.0,Calm,Calm,-,N/A,,Overcast,0,2013-07-12 09:35:00
5:55 AM,69.8,68.5,96,29.92,10.0,Calm,Calm,-,N/A,,Overcast,0,2013-07-12 09:55:00
6:15 AM,69.4,68.9,98,29.92,5.0,Calm,Calm,-,N/A,,Overcast,0,2013-07-12 10:15:00
6:35 AM,69.4,68.9,98,29.93,7.0,Calm,Calm,-,N/A,,Overcast,0,2013-07-12 10:35:00
6:55 AM,69.4,68.9,98,29.93,1.5,Calm,Calm,-,N/A,,Overcast,0,2013-07-12 10:55:00
7:15 AM,69.4,69.1,99,29.93,0.8,Calm,Calm,-,N/A,,Drizzle,0,2013-07-12 11:15:00
7:35 AM,69.8,69.4,99,29.94,1.2,Calm,Calm,-,N/A,,Overcast,0,2013-07-12 11:35:00
7:55 AM,69.8,69.4,99,29.94,3.0,Calm,Calm,-,N/A,,Overcast,0,2013-07-12 11:55:00
8:15 AM,69.8,69.3,98,29.94,3.0,Calm,Calm,-,N/A,,Overcast,0,2013-07-12 12:15:00
8:35 AM,70.3,69.8,98,29.94,5.0,NW,3.5,-,N/A,,Overcast,310,2013-07-12 12:35:00
8:55 AM,71.1,70.2,97,29.95,5.0,Calm,Calm,-,N/A,,Overcast,0,2013-07-12 12:55:00
9:15 AM,70.7,69.4,96,29.95,5.0,North,4.6,-,N/A,,Overcast,10,2013-07-12 13:15:00
9:35 AM,72.0,69.8,93,29.95,10.0,NE,5.8,-,N/A,,Overcast,50,2013-07-12 13:35:00
9:55 AM,71.2,69.1,93,29.96,10.0,NNE,4.6,-,N/A,,Overcast,20,2013-07-12 13:55:00
10:15 AM,72.1,69.6,92,29.97,10.0,NNE,6.9,-,N/A,,Overcast,30,2013-07-12 14:15:00
10:35 AM,73.2,69.6,88,29.97,10.0,NE,5.8,-,N/A,,Overcast,50,2013-07-12 14:35:00
10:55 AM,73.0,69.3,88,29.98,10.0,ENE,8.1,-,N/A,,Overcast,60,2013-07-12 14:55:00
11:15 AM,73.9,69.1,85,29.98,10.0,ENE,9.2,16.1,N/A,,Overcast,60,2013-07-12 15:15:00
11:35 AM,75.2,69.4,82,29.98,10.0,ENE,8.1,-,N/A,,Overcast,60,2013-07-12 15:35:00
11:55 AM,75.7,69.8,82,29.99,10.0,ENE,9.2,-,N/A,,Overcast,70,2013-07-12 15:55:00
12:15 PM,75.7,70.3,83,29.98,10.0,East,8.1,-,N/A,,Overcast,90,2013-07-12 16:15:00
12:35 PM,76.1,69.3,79,29.98,10.0,ENE,6.9,-,N/A,,Mostly Cloudy,60,2013-07-12 16:35:00
12:55 PM,76.6,69.4,78,29.97,10.0,ENE,8.1,-,N/A,,Overcast,70,2013-07-12 16:55:00
1:15 PM,77.9,69.6,76,29.97,10.0,East,5.8,-,N/A,,Mostly Cloudy,80,2013-07-12 17:15:00
1:35 PM,77.9,68.7,73,29.97,10.0,ENE,5.8,-,N/A,,Scattered Clouds,60,2013-07-12 17:35:00
1:55 PM,78.6,69.1,72,29.96,10.0,ENE,8.1,-,N/A,,Mostly Cloudy,60,2013-07-12 17:55:00
2:15 PM,78.1,68.2,71,29.96,10.0,NE,8.1,-,N/A,,Mostly Cloudy,50,2013-07-12 18:15:00
2:35 PM,78.4,68.5,72,29.96,10.0,NE,8.1,-,N/A,,Mostly Cloudy,50,2013-07-12 18:35:00
2:55 PM,78.6,68.9,72,29.96,10.0,East,10.4,-,N/A,,Scattered Clouds,80,2013-07-12 18:55:00
3:15 PM,77.4,68.7,75,29.96,10.0,East,6.9,-,N/A,,Mostly Cloudy,80,2013-07-12 19:15:00
3:35 PM,78.8,68.9,72,29.95,10.0,East,9.2,-,N/A,,Scattered Clouds,90,2013-07-12 19:35:00
3:55 PM,77.4,68.4,74,29.95,10.0,ENE,8.1,-,N/A,,Mostly Cloudy,70,2013-07-12 19:55:00
4:15 PM,79.0,69.3,72,29.95,10.0,East,11.5,-,N/A,,Scattered Clouds,80,2013-07-12 20:15:00
4:35 PM,78.8,68.4,70,29.94,10.0,East,8.1,-,N/A,,Scattered Clouds,80,2013-07-12 20:35:00
4:55 PM,78.1,67.5,70,29.94,10.0,East,9.2,-,N/A,,Mostly Cloudy,80,2013-07-12 20:55:00
5:15 PM,77.2,66.7,70,29.96,10.0,NE,9.2,-,N/A,,Mostly Cloudy,50,2013-07-12 21:15:00
5:35 PM,76.8,66.9,71,29.97,10.0,ENE,8.1,-,N/A,,Mostly Cloudy,60,2013-07-12 21:35:00
5:55 PM,78.3,68.2,71,29.96,10.0,ENE,10.4,17.3,N/A,,Scattered Clouds,70,2013-07-12 21:55:00
6:15 PM,77.5,67.6,71,29.98,10.0,ENE,6.9,-,N/A,,Scattered Clouds,60,2013-07-12 22:15:00
6:35 PM,75.0,66.4,74,29.98,10.0,East,9.2,-,N/A,,Scattered Clouds,90,2013-07-12 22:35:00
6:55 PM,74.3,66.2,76,29.97,10.0,East,9.2,-,N/A,,Scattered Clouds,80,2013-07-12 22:55:00
7:15 PM,73.9,66.4,77,29.98,10.0,East,9.2,-,N/A,,Clear,80,2013-07-12 23:15:00
7:35 PM,73.2,66.0,78,29.99,10.0,ENE,8.1,-,N/A,,Clear,70,2013-07-12 23:35:00
7:55 PM,72.7,65.7,79,29.99,10.0,ENE,6.9,-,N/A,,Clear,70,2013-07-12 23:55:00
8:15 PM,72.3,65.8,80,30.01,10.0,NE,5.8,-,N/A,,Scattered Clouds,50,2013-07-13 00:15:00
8:35 PM,71.8,65.7,81,30.00,10.0,ENE,9.2,-,N/A,,Mostly Cloudy,70,2013-07-13 00:35:00
8:55 PM,71.4,65.3,81,30.00,10.0,ENE,6.9,-,N/A,,Scattered Clouds,60,2013-07-13 00:55:00
9:15 PM,70.5,65.1,83,30.00,10.0,NE,4.6,-,N/A,,Clear,50,2013-07-13 01:15:00
9:35 PM,70.2,64.8,83,30.00,10.0,ENE,5.8,-,N/A,,Clear,60,2013-07-13 01:35:00
9:55 PM,69.8,64.9,84,30.01,10.0,NE,3.5,-,N/A,,Clear,50,2013-07-13 01:55:00
10:15 PM,69.3,65.3,87,30.02,10.0,ENE,5.8,-,N/A,,Clear,60,2013-07-13 02:15:00
10:35 PM,69.1,65.1,87,30.04,10.0,NE,3.5,-,N/A,,Scattered Clouds,40,2013-07-13 02:35:00
10:55 PM,68.5,65.1,89,30.04,10.0,East,4.6,-,N/A,,Scattered Clouds,80,2013-07-13 02:55:00
11:15 PM,68.2,65.3,90,30.04,10.0,ENE,5.8,-,N/A,,Clear,60,2013-07-13 03:15:00
11:35 PM,68.2,65.3,90,30.04,10.0,NNE,3.5,-,N/A,,Clear,30,2013-07-13 03:35:00
11:55 PM,68.0,65.3,91,30.04,10.0,North,5.8,-,N/A,,Clear,360,2013-07-13 03:55:00